FFT1699 KLAS-KSNA

Flight info

Callsign FFT1699
Flight time 0h 37m
Altitude 26000
Route RADYR2 SLVRR FEYLA DSNEE6
Aircraft A20N/M-SDE2E3FGHIRWXY/LB1

Departure

Time 2026-05-06 22:16
Airport Harry Reid International Airport (KLAS)

Arrival

Time 2026-05-06 22:53
Airport John Wayne Orange County International Airport (KSNA)
Time Latitude Longitude Altitude Speed Heading
2026-05-06 21:54 36.08536 -115.13794 2072 ft 0 kts
2026-05-06 22:05 36.08532 -115.13794 2072 ft 2 kts
2026-05-06 22:05 36.08517 -115.13794 2073 ft 2 kts
2026-05-06 22:05 36.08503 -115.13795 2073 ft 2 kts
2026-05-06 22:05 36.08487 -115.13795 2073 ft 2 kts 17°
2026-05-06 22:06 36.08474 -115.13804 2074 ft 2 kts 46°
2026-05-06 22:06 36.08466 -115.13820 2074 ft 2 kts 75°
2026-05-06 22:06 36.08464 -115.13830 2074 ft 1 kts 91°
2026-05-06 22:06 36.08465 -115.13836 2075 ft 0 kts 89°
2026-05-06 22:08 36.08465 -115.13811 2074 ft 6 kts 90°
2026-05-06 22:08 36.08465 -115.13731 2072 ft 12 kts 90°
2026-05-06 22:09 36.08465 -115.13599 2069 ft 17 kts 90°
2026-05-06 22:09 36.08446 -115.13436 2064 ft 19 kts 127°
2026-05-06 22:09 36.08351 -115.13316 2064 ft 19 kts 142°
2026-05-06 22:09 36.08231 -115.13292 2066 ft 16 kts 180°
2026-05-06 22:10 36.08118 -115.13290 2068 ft 15 kts 180°
2026-05-06 22:10 36.08015 -115.13290 2070 ft 14 kts 180°
2026-05-06 22:10 36.07919 -115.13289 2071 ft 13 kts 179°
2026-05-06 22:10 36.07837 -115.13265 2073 ft 12 kts 125°
2026-05-06 22:11 36.07828 -115.13142 2070 ft 16 kts 90°
2026-05-06 22:11 36.07827 -115.12978 2064 ft 21 kts 90°
2026-05-06 22:11 36.07827 -115.12788 2061 ft 23 kts 90°
2026-05-06 22:11 36.07827 -115.12581 2057 ft 24 kts 90°
2026-05-06 22:12 36.07826 -115.12367 2053 ft 23 kts 89°
2026-05-06 22:12 36.07796 -115.12220 2051 ft 9 kts 124°
2026-05-06 22:12 36.07753 -115.12151 2051 ft 10 kts 140°
2026-05-06 22:12 36.07744 -115.12142 2051 ft 0 kts 140°
2026-05-06 22:14 36.07736 -115.12135 2051 ft 5 kts 153°
2026-05-06 22:14 36.07676 -115.12125 2052 ft 11 kts 179°
2026-05-06 22:14 36.07643 -115.12198 2053 ft 11 kts 268°
2026-05-06 22:15 36.07642 -115.12511 2059 ft 70 kts 270°
2026-05-06 22:15 36.07645 -115.13373 2079 ft 129 kts 269°
2026-05-06 22:15 36.07635 -115.14684 2169 ft 168 kts 270°
2026-05-06 22:15 36.07632 -115.16139 2607 ft 173 kts 270°
2026-05-06 22:16 36.07634 -115.17646 3161 ft 177 kts 270°
2026-05-06 22:16 36.07634 -115.19186 3669 ft 185 kts 270°
2026-05-06 22:16 36.07625 -115.20828 4045 ft 199 kts 269°
2026-05-06 22:16 36.07451 -115.22598 4338 ft 215 kts 261°
2026-05-06 22:17 36.07109 -115.24504 4553 ft 239 kts 250°
2026-05-06 22:17 36.06123 -115.26200 4898 ft 257 kts 217°
2026-05-06 22:17 36.04446 -115.27179 5287 ft 274 kts 199°
2026-05-06 22:17 36.02604 -115.27940 5835 ft 284 kts 199°
2026-05-06 22:18 36.00727 -115.28742 6538 ft 289 kts 200°
2026-05-06 22:18 35.98790 -115.29471 7261 ft 294 kts 195°
2026-05-06 22:18 35.96798 -115.30019 7973 ft 299 kts 192°
2026-05-06 22:18 35.94766 -115.30518 8700 ft 303 kts 191°
2026-05-06 22:19 35.92680 -115.31023 9482 ft 307 kts 191°
2026-05-06 22:19 35.90567 -115.31535 10257 ft 313 kts 191°
2026-05-06 22:19 35.88417 -115.32061 10828 ft 327 kts 191°
2026-05-06 22:19 35.86102 -115.32627 11316 ft 344 kts 191°
2026-05-06 22:20 35.83743 -115.33205 12013 ft 352 kts 191°
2026-05-06 22:20 35.81319 -115.33800 12759 ft 357 kts 191°
2026-05-06 22:20 35.78904 -115.34394 13523 ft 361 kts 191°
2026-05-06 22:20 35.76410 -115.35004 14296 ft 366 kts 191°
2026-05-06 22:21 35.73919 -115.35613 15051 ft 370 kts 191°
2026-05-06 22:21 35.71389 -115.36232 15749 ft 375 kts 190°
2026-05-06 22:21 35.68803 -115.36865 16476 ft 379 kts 190°
2026-05-06 22:21 35.66218 -115.37495 17181 ft 383 kts 190°
2026-05-06 22:22 35.63616 -115.38142 17838 ft 388 kts 192°
2026-05-06 22:22 35.61052 -115.39305 18346 ft 397 kts 210°
2026-05-06 22:22 35.58847 -115.41350 18955 ft 401 kts 226°
2026-05-06 22:22 35.56958 -115.43861 19639 ft 403 kts 230°
2026-05-06 22:23 35.55086 -115.46479 20274 ft 407 kts 230°
2026-05-06 22:23 35.53205 -115.49102 20881 ft 411 kts 230°
2026-05-06 22:23 35.51318 -115.51701 21472 ft 415 kts 230°
2026-05-06 22:23 35.49374 -115.54347 22074 ft 419 kts 230°
2026-05-06 22:24 35.47396 -115.57026 22434 ft 429 kts 230°
2026-05-06 22:24 35.45378 -115.59750 22789 ft 438 kts 229°
2026-05-06 22:24 35.43325 -115.62516 23317 ft 442 kts 229°
2026-05-06 22:24 35.41261 -115.65292 23874 ft 445 kts 229°
2026-05-06 22:25 35.39147 -115.68132 24395 ft 449 kts 229°
2026-05-06 22:25 35.37060 -115.70932 24849 ft 453 kts 229°
2026-05-06 22:25 35.34916 -115.73809 25308 ft 457 kts 228°
2026-05-06 22:25 35.32783 -115.76664 25762 ft 460 kts 228°
2026-05-06 22:26 35.30597 -115.79584 26045 ft 463 kts 228°
2026-05-06 22:26 35.28386 -115.82532 26061 ft 476 kts 228°
2026-05-06 22:26 35.26136 -115.85531 26051 ft 489 kts 229°
2026-05-06 22:26 35.23812 -115.88625 26041 ft 501 kts 228°
2026-05-06 22:27 35.21441 -115.91751 26027 ft 505 kts 227°
2026-05-06 22:27 35.18996 -115.94859 26022 ft 507 kts 227°
2026-05-06 22:27 35.16520 -115.97966 26009 ft 508 kts 226°
2026-05-06 22:27 35.14068 -116.01034 26007 ft 507 kts 226°
2026-05-06 22:28 35.11599 -116.04127 26007 ft 508 kts 226°
2026-05-06 22:28 35.09161 -116.07188 26005 ft 508 kts 226°
2026-05-06 22:28 35.06696 -116.10283 26009 ft 508 kts 226°
2026-05-06 22:28 35.04221 -116.13391 26008 ft 508 kts 226°
2026-05-06 22:29 35.01777 -116.16460 26010 ft 507 kts 226°
2026-05-06 22:29 34.99315 -116.19547 26005 ft 507 kts 226°
2026-05-06 22:29 34.96871 -116.22611 26006 ft 507 kts 226°
2026-05-06 22:29 34.94414 -116.25686 26005 ft 507 kts 227°
2026-05-06 22:30 34.91948 -116.28772 26002 ft 507 kts 226°
2026-05-06 22:30 34.89497 -116.31835 26006 ft 508 kts 227°
2026-05-06 22:30 34.87039 -116.34920 26016 ft 506 kts 227°
2026-05-06 22:30 34.84610 -116.38010 26021 ft 502 kts 227°
2026-05-06 22:31 34.82245 -116.41032 26025 ft 482 kts 227°
2026-05-06 22:31 34.79994 -116.43907 26029 ft 463 kts 227°
2026-05-06 22:31 34.77799 -116.46706 26037 ft 452 kts 227°
2026-05-06 22:31 34.75636 -116.49459 26046 ft 452 kts 227°
2026-05-06 22:32 34.73479 -116.52201 26051 ft 452 kts 227°
2026-05-06 22:32 34.71294 -116.54975 26005 ft 452 kts 227°
2026-05-06 22:32 34.69098 -116.57694 25669 ft 448 kts 225°
2026-05-06 22:32 34.66812 -116.60238 25209 ft 444 kts 223°
2026-05-06 22:33 34.64530 -116.62704 24688 ft 441 kts 223°
2026-05-06 22:33 34.62260 -116.65148 24160 ft 438 kts 222°
2026-05-06 22:33 34.59981 -116.67603 23650 ft 434 kts 222°
2026-05-06 22:33 34.57756 -116.70002 23168 ft 430 kts 222°
2026-05-06 22:34 34.55521 -116.72417 22666 ft 426 kts 222°
2026-05-06 22:34 34.53338 -116.74772 22166 ft 423 kts 222°
2026-05-06 22:34 34.51142 -116.77141 21655 ft 420 kts 222°
2026-05-06 22:34 34.48967 -116.79486 21162 ft 417 kts 222°
2026-05-06 22:35 34.46796 -116.81824 20670 ft 415 kts 222°
2026-05-06 22:35 34.44670 -116.84111 20195 ft 412 kts 222°
2026-05-06 22:35 34.42546 -116.86396 19693 ft 410 kts 222°
2026-05-06 22:35 34.40408 -116.88696 19199 ft 407 kts 222°
2026-05-06 22:36 34.38308 -116.90952 18718 ft 405 kts 222°
2026-05-06 22:36 34.36199 -116.93218 18246 ft 402 kts 222°
2026-05-06 22:36 34.34140 -116.95427 17768 ft 400 kts 222°
2026-05-06 22:36 34.32054 -116.97664 17301 ft 398 kts 222°
2026-05-06 22:37 34.29998 -116.99867 16844 ft 395 kts 222°
2026-05-06 22:37 34.27930 -117.02039 16380 ft 392 kts 219°
2026-05-06 22:37 34.25769 -117.03999 15934 ft 389 kts 214°
2026-05-06 22:37 34.23496 -117.05725 15472 ft 386 kts 211°
2026-05-06 22:38 34.21177 -117.07387 14996 ft 383 kts 210°
2026-05-06 22:38 34.18913 -117.08998 14551 ft 379 kts 210°
2026-05-06 22:38 34.16610 -117.10523 13981 ft 370 kts 205°
2026-05-06 22:38 34.14335 -117.11792 13506 ft 354 kts 203°
2026-05-06 22:39 34.12138 -117.12962 13168 ft 335 kts 203°
2026-05-06 22:39 34.10036 -117.14075 13087 ft 333 kts 203°
2026-05-06 22:39 34.07910 -117.15205 12740 ft 331 kts 202°
2026-05-06 22:39 34.05806 -117.16329 12465 ft 328 kts 203°
2026-05-06 22:40 34.03714 -117.17445 12252 ft 327 kts 203°
2026-05-06 22:40 34.01638 -117.18557 12101 ft 325 kts 203°
2026-05-06 22:40 33.99653 -117.19876 12033 ft 326 kts 217°
2026-05-06 22:40 33.97998 -117.21740 11938 ft 326 kts 229°
2026-05-06 22:41 33.95171 -117.25789 11238 ft 307 kts 231°
2026-05-06 22:41 33.93823 -117.27732 10812 ft 297 kts 231°
2026-05-06 22:41 33.92505 -117.29607 10419 ft 288 kts 231°
2026-05-06 22:42 33.91234 -117.31418 10170 ft 282 kts 231°
2026-05-06 22:42 33.89986 -117.33190 9878 ft 279 kts 231°
2026-05-06 22:42 33.88721 -117.34983 9543 ft 277 kts 231°
2026-05-06 22:42 33.87482 -117.36736 9244 ft 274 kts 231°
2026-05-06 22:43 33.86256 -117.38465 8960 ft 270 kts 231°
2026-05-06 22:43 33.85047 -117.40173 8683 ft 267 kts 231°
2026-05-06 22:43 33.83859 -117.41852 8419 ft 264 kts 231°
2026-05-06 22:43 33.82669 -117.43531 8150 ft 261 kts 232°
2026-05-06 22:44 33.81666 -117.45303 7986 ft 251 kts 245°
2026-05-06 22:44 33.80981 -117.47192 7993 ft 245 kts 252°
2026-05-06 22:44 33.80394 -117.49081 7982 ft 240 kts 252°
2026-05-06 22:44 33.79836 -117.50913 7969 ft 229 kts 252°
2026-05-06 22:45 33.79311 -117.52716 7976 ft 228 kts 261°
2026-05-06 22:45 33.79396 -117.54530 8034 ft 210 kts 295°
2026-05-06 22:45 33.80165 -117.55934 7757 ft 202 kts 314°
2026-05-06 22:45 33.80968 -117.57306 7449 ft 202 kts 303°
2026-05-06 22:46 33.81601 -117.58785 7177 ft 197 kts 300°
2026-05-06 22:46 33.82182 -117.60267 6859 ft 194 kts 298°
2026-05-06 22:46 33.82710 -117.61746 6558 ft 191 kts 293°
2026-05-06 22:46 33.83012 -117.63295 6240 ft 191 kts 281°
2026-05-06 22:47 33.83146 -117.64869 5914 ft 189 kts 278°
2026-05-06 22:47 33.83248 -117.66438 5588 ft 187 kts 277°
2026-05-06 22:47 33.83325 -117.67989 5258 ft 186 kts 274°
2026-05-06 22:47 33.83329 -117.69529 4931 ft 184 kts 271°
2026-05-06 22:48 33.83321 -117.71062 4605 ft 182 kts 272°
2026-05-06 22:48 33.83316 -117.72577 4257 ft 179 kts 271°
2026-05-06 22:48 33.83312 -117.74078 3898 ft 179 kts 271°
2026-05-06 22:48 33.83309 -117.75569 3583 ft 177 kts 270°
2026-05-06 22:49 33.82995 -117.76964 3256 ft 179 kts 236°
2026-05-06 22:49 33.81985 -117.77824 3113 ft 181 kts 208°
2026-05-06 22:49 33.80854 -117.78503 3032 ft 181 kts 208°
2026-05-06 22:49 33.79734 -117.79188 2922 ft 177 kts 209°
2026-05-06 22:50 33.78666 -117.79858 2522 ft 175 kts 210°
2026-05-06 22:50 33.77596 -117.80538 2096 ft 174 kts 210°
2026-05-06 22:50 33.76529 -117.81217 1843 ft 172 kts 210°
2026-05-06 22:50 33.75471 -117.81888 1629 ft 171 kts 210°
2026-05-06 22:51 33.74450 -117.82533 1391 ft 159 kts 210°
2026-05-06 22:51 33.73525 -117.83118 1182 ft 142 kts 210°
2026-05-06 22:51 33.72680 -117.83654 1021 ft 134 kts 210°
2026-05-06 22:51 33.71861 -117.84175 845 ft 133 kts 209°
2026-05-06 22:52 33.71034 -117.84699 669 ft 133 kts 209°
2026-05-06 22:52 33.70215 -117.85218 490 ft 132 kts 209°
2026-05-06 22:52 33.69399 -117.85732 306 ft 132 kts 209°
2026-05-06 22:52 33.68583 -117.86239 158 ft 130 kts 208°
2026-05-06 22:53 33.67793 -117.86742 54 ft 122 kts 208°
2026-05-06 22:53 33.67163 -117.87141 58 ft 78 kts 207°
2026-05-06 22:53 33.66826 -117.87346 61 ft 31 kts 188°
2026-05-06 22:53 33.66775 -117.87241 61 ft 17 kts 52°
2026-05-06 22:54 33.66869 -117.87141 61 ft 18 kts 39°
2026-05-06 22:54 33.66967 -117.87044 59 ft 19 kts 41°
2026-05-06 22:54 33.67072 -117.86932 58 ft 20 kts 40°
2026-05-06 22:54 33.67189 -117.86827 58 ft 21 kts 31°
2026-05-06 22:55 33.67313 -117.86723 56 ft 22 kts 43°
2026-05-06 22:55 33.67446 -117.86629 55 ft 22 kts 26°
2026-05-06 22:55 33.67585 -117.86546 54 ft 22 kts 27°
2026-05-06 22:55 33.67712 -117.86461 51 ft 12 kts 29°
2026-05-06 22:56 33.67731 -117.86398 51 ft 5 kts 113°
2026-05-06 22:56 33.67718 -117.86368 51 ft 2 kts 119°